Location: Unspecified
(43.4680°N, 87.1740°E)
Time: 02:43:50
(UTC+00:00)

Cosmos 2034 Rocket - Visible Passes

Search period start: 26 July 2021 00:00
Search period end: 05 August 2021 00:00
Orbit: 957 x 1001 km, 82.9° (Epoch: 25 July)

Date Brightness Start Highest point End Pass type
(mag) Time Alt. Az. Time Alt. Az. Time Alt. Az.
26 Jul 5.8 14:23:15 10° NNW 14:28:41 33° W 14:34:08 10° SSW visible
27 Jul 6.6 14:50:49 10° NW 14:54:48 18° W 14:58:48 10° WSW visible
30 Jul 6.6 14:24:43 10° NW 14:29:01 20° W 14:33:21 10° SW visible
02 Aug 6.6 13:58:38 10° NW 14:03:14 22° W 14:07:51 10° SW visible
03 Aug 7.2 14:27:25 10° WNW 14:29:14 11° WNW 14:31:02 10° W visible
